Showing default

PROTOMETHEE, 58321

Orbit data source: Space-Track

PROTOMETHEE, 58321 is a payload satellite owned by Promethee (FR) in SSO that was launched on Sat, 11 Nov 2023 UTC via an FALCON 9 launch vehicle from the Air Force Western Test Range (AFWTR). Payload-class satellites include a variety of spacecraft equipped with specific instruments for various scientific and technological missions. These include communications satellites like Starlink; space stations such as the ISS; scientific satellites like the Hubble; Earth observation satellites from companies like Planet Labs, Umbra, and HawkEye 360; GPS; miniature CubeSats for education and research; and military/defense satellites.

Loading next visibility...
Identifier
58321, 2023-174BT
Orbit
SSO
Country
Flag of FRFR
Related business
Manufacturer
NanoAvionics
Mission
Operational Commercial Imaging
Bus & Motor
CUBESAT 16U, Unknown motor
Mass
30 kg wet, ~30 kg dry
Launch date (UTC)
2023-11-11 (2 years ago)
Launch vehicle
FALCON 9
Launch site
Air Force Western Test Range (AFWTR)
Object type
Payload
Rocket body
Debris
Shape & HBR
Box + 2 Pan, 0.2 m
Radar Cross Section
0.100 m², Medium (>0.1 m² and < 1m²)

Expand to show TLE details & history
Last TLE update: 11 hours ago

TLE from 11 hours ago
0 PROTOMETHEE
1 58321U 23174BT  26126.57738221  .00003197  00000-0  10934-3 0  9998
2 58321  97.3769 205.2177 0005721 329.0773  31.0131 15.30983497138608
Epoch: 2026-05-06T13:51Z
TLE epoch observation values (Epoch: 2026-05-06T13:51:25.822Z)
Latitude
-0.00001°
Longitude
132.92423°
Altitude
472.623 km
Speed
7.632 km/s
True Right ascension
13h 40m 52s
True Declination
0° 00' 00"
Sunlit
Object was in full shadow at epoch
Visualization orbit readout
Latitude
Unknown
Longitude
Unknown
Altitude
Unknown
Speed
Unknown
Apparent Right ascension
Unknown
Apparent Declination
Unknown
Sunlit
N/A
Visualization observer readout
Local Sidereal Time
08:27:06
Azimuth
Unknown
Elevation
Unknown
Doppler factor
Unknown
Orbital elements
Apogee altitude
473.744 km
Perigee altitude
465.909 km
Semi-major axis
6,847.964 km
Eccentricity
0.00057
Inclination
97.3769°
RAAN
205.2177°
Arg. of periapsis
329.0773°
True anomaly
31.0469°
Mean anomaly
31.0131°
Eccentric anomaly
31.03°
Mean motion
3.83002 °/min
Orbital period
93.99 mins
BSTAR
0.00010934
Loading maneuver chart data...
Computing Atmospheric mass density...
Loading historical data...
Loading historical data...
Loading historical data...
Loading historical data...
Loading historical data...
Loading historical data...
Loading historical data...

Documentation

Showing up to 5 results
|